When you browse on this site, cookies collect data to enhance your experience and personalize the content and advertising you see.
Visit our Privacy Policy to learn more. By continuing to use the site, you agree to this use of cookies and data.
  • In Netherlands
  • List of Countries
  • For 7 days
  • Water Temperature
  • Satellite Maps
  • Weather Map
  • Weather Widgets
  • user-avatar
    Login

    Hourly Weather Wiktoria

    Today, 20 November, Tuesday

    Time Temperature Precipitation Wind Pressure Humidity
    00:00 +21°C° 0 mm 4 mps 746 mmHg 44%
    01:00 +20°C° 0 mm 4 mps 746 mmHg 46%
    02:00 +20°C° 0 mm 4 mps 745 mmHg 48%
    03:00 +20°C° 0 mm 5 mps 745 mmHg 51%
    04:00 +19°C° 0 mm 5 mps 744 mmHg 49%
    05:00 +20°C° 0.1 mm 5 mps 744 mmHg 54%
    06:00 +20°C° 0.1 mm 5 mps 745 mmHg 58%
    07:00 +21°C° 0.1 mm 6 mps 745 mmHg 63%
    08:00 +23°C° 0.1 mm 5 mps 744 mmHg 59%
    09:00 +26°C° 0.1 mm 5 mps 744 mmHg 55%
    10:00 +29°C° 0 mm 5 mps 743 mmHg 47%
    11:00 +30°C° 0.1 mm 5 mps 743 mmHg 43%
    12:00 +32°C° 0.1 mm 5 mps 742 mmHg 40%
    13:00 +33°C° 0.1 mm 5 mps 741 mmHg 37%
    14:00 +32°C° 0.1 mm 5 mps 740 mmHg 38%
    15:00 +32°C° 0.1 mm 5 mps 740 mmHg 39%
    16:00 +27°C° 0 mm 3 mps 739 mmHg 62%
    17:00 +26°C° 1.9 mm 3 mps 739 mmHg 68%
    18:00 +24°C° 1.9 mm 3 mps 739 mmHg 74%
    19:00 +22°C° 1.9 mm 3 mps 739 mmHg 81%
    20:00 +21°C° 0.8 mm 3 mps 739 mmHg 83%
    21:00 +20°C° 0.8 mm 2 mps 739 mmHg 85%
    22:00 +19°C° 0.8 mm 2 mps 739 mmHg 87%
    23:00 +19°C° 0.5 mm 2 mps 739 mmHg 88%

    Tomorrow, 21 November, Wednesday

    Time Temperature Precipitation Wind Pressure Humidity
    00:00 +18°C° 0.5 mm 3 mps 739 mmHg 89%
    01:00 +18°C° 0.5 mm 3 mps 739 mmHg 89%
    02:00 +17°C° 0.2 mm 3 mps 739 mmHg 90%
    03:00 +17°C° 0.2 mm 3 mps 739 mmHg 90%
    04:00 +16°C° 0.2 mm 3 mps 739 mmHg 91%
    05:00 +16°C° 0 mm 3 mps 739 mmHg 89%
    06:00 +16°C° 0 mm 3 mps 739 mmHg 87%
    07:00 +14°C° 0 mm 3 mps 739 mmHg 86%
    08:00 +17°C° 0 mm 3 mps 739 mmHg 74%
    09:00 +19°C° 0 mm 3 mps 739 mmHg 63%
    10:00 +20°C° 0 mm 3 mps 739 mmHg 52%
    11:00 +21°C° 0 mm 4 mps 738 mmHg 44%
    12:00 +23°C° 0 mm 5 mps 738 mmHg 37%
    13:00 +25°C° 0 mm 5 mps 737 mmHg 30%
    14:00 +25°C° 0 mm 5 mps 736 mmHg 30%
    15:00 +24°C° 0 mm 6 mps 736 mmHg 31%
    16:00 +24°C° 0 mm 6 mps 735 mmHg 31%
    17:00 +22°C° 0.1 mm 6 mps 735 mmHg 40%
    18:00 +18°C° 0.1 mm 7 mps 736 mmHg 49%
    19:00 +16°C° 0.1 mm 7 mps 736 mmHg 58%
    20:00 +13°C° 0.4 mm 5 mps 737 mmHg 66%
    21:00 +11°C° 0.4 mm 4 mps 737 mmHg 74%
    22:00 +9°C° 0.4 mm 2 mps 738 mmHg 82%
    23:00 +9°C° 0.4 mm 2 mps 738 mmHg 84%

    Day after tomorrow, 22 November, Thursday

    Time Temperature Precipitation Wind Pressure Humidity
    00:00 +8°C° 0.4 mm 2 mps 738 mmHg 86%
    01:00 +8°C° 0.4 mm 2 mps 738 mmHg 88%
    02:00 +8°C° 0.2 mm 3 mps 737 mmHg 86%
    03:00 +8°C° 0.2 mm 3 mps 737 mmHg 85%
    04:00 +6°C° 0.2 mm 4 mps 736 mmHg 84%
    05:00 +7°C° 0.4 mm 4 mps 736 mmHg 82%
    06:00 +7°C° 0.4 mm 5 mps 736 mmHg 80%
    07:00 +8°C° 0.4 mm 5 mps 735 mmHg 78%
    08:00 +8°C° 1 mm 5 mps 735 mmHg 78%
    09:00 +9°C° 1 mm 5 mps 735 mmHg 79%
    10:00 +10°C° 1 mm 5 mps 735 mmHg 79%
    11:00 +12°C° 1 mm 5 mps 735 mmHg 76%
    12:00 +13°C° 1 mm 6 mps 735 mmHg 72%
    13:00 +14°C° 1 mm 6 mps 735 mmHg 69%
    14:00 +14°C° 0.6 mm 6 mps 735 mmHg 66%
    15:00 +15°C° 0.6 mm 6 mps 736 mmHg 64%
    16:00 +15°C° 0.6 mm 6 mps 736 mmHg 61%
    17:00 +14°C° 0.2 mm 6 mps 737 mmHg 66%
    18:00 +13°C° 0.2 mm 5 mps 738 mmHg 71%
    19:00 +12°C° 0.2 mm 5 mps 739 mmHg 76%
    20:00 +10°C° 0 mm 5 mps 740 mmHg 78%
    21:00 +10°C° 0 mm 5 mps 741 mmHg 81%
    22:00 +9°C° 0 mm 5 mps 742 mmHg 83%
    23:00 +8°C° 0 mm 5 mps 742 mmHg 83%

    23 November, Friday

    Time Temperature Precipitation Wind Pressure Humidity
    00:00 +8°C° 0 mm 5 mps 742 mmHg 83%
    01:00 +7°C° 0 mm 4 mps 742 mmHg 83%
    02:00 +7°C° 0 mm 4 mps 742 mmHg 84%
    03:00 +7°C° 0 mm 4 mps 742 mmHg 85%
    04:00 +6°C° 0 mm 4 mps 742 mmHg 85%
    05:00 +7°C° 0 mm 5 mps 743 mmHg 80%
    06:00 +9°C° 0 mm 5 mps 743 mmHg 75%
    07:00 +10°C° 0 mm 6 mps 743 mmHg 70%
    08:00 +11°C° 0 mm 6 mps 743 mmHg 63%
    09:00 +14°C° 0 mm 6 mps 743 mmHg 56%
    10:00 +16°C° 0 mm 7 mps 743 mmHg 49%
    11:00 +16°C° 0 mm 7 mps 743 mmHg 48%
    12:00 +17°C° 0 mm 7 mps 742 mmHg 46%
    13:00 +17°C° 0 mm 7 mps 742 mmHg 45%
    14:00 +16°C° 0.3 mm 7 mps 742 mmHg 52%
    15:00 +15°C° 0.3 mm 6 mps 742 mmHg 60%
    16:00 +14°C° 0.3 mm 6 mps 741 mmHg 67%
    17:00 +14°C° 0.2 mm 6 mps 741 mmHg 69%
    18:00 +14°C° 0.2 mm 6 mps 742 mmHg 71%
    19:00 +13°C° 0.2 mm 6 mps 742 mmHg 73%
    20:00 +13°C° 0.1 mm 6 mps 742 mmHg 75%
    21:00 +13°C° 0.1 mm 6 mps 743 mmHg 76%
    22:00 +13°C° 0.1 mm 6 mps 743 mmHg 78%
    23:00 +13°C° 0.1 mm 6 mps 743 mmHg 79%

    24 November, Saturday

    Time Temperature Precipitation Wind Pressure Humidity
    00:00 +13°C° 0.1 mm 6 mps 743 mmHg 80%
    01:00 +13°C° 0.1 mm 5 mps 743 mmHg 81%
    02:00 +12°C° 0 mm 5 mps 743 mmHg 83%
    03:00 +11°C° 0 mm 4 mps 743 mmHg 85%
    04:00 +11°C° 0 mm 4 mps 743 mmHg 87%
    05:00 +10°C° 0 mm 5 mps 743 mmHg 82%
    06:00 +12°C° 0 mm 5 mps 743 mmHg 77%
    07:00 +13°C° 0 mm 6 mps 744 mmHg 72%
    08:00 +15°C° 0 mm 6 mps 744 mmHg 66%
    09:00 +16°C° 0 mm 6 mps 744 mmHg 60%
    10:00 +17°C° 0 mm 6 mps 744 mmHg 54%
    11:00 +20°C° 0 mm 6 mps 743 mmHg 51%
    12:00 +21°C° 0 mm 6 mps 743 mmHg 47%
    13:00 +22°C° 0 mm 6 mps 743 mmHg 43%
    14:00 +22°C° 0 mm 6 mps 742 mmHg 45%
    15:00 +22°C° 0 mm 6 mps 742 mmHg 47%
    16:00 +21°C° 0 mm 5 mps 742 mmHg 48%
    17:00 +20°C° 0 mm 5 mps 742 mmHg 54%
    18:00 +18°C° 0 mm 4 mps 742 mmHg 60%
    19:00 +17°C° 0 mm 4 mps 742 mmHg 66%
    20:00 +14°C° 0 mm 3 mps 743 mmHg 72%
    21:00 +13°C° 0 mm 3 mps 743 mmHg 78%
    22:00 +12°C° 0 mm 3 mps 743 mmHg 84%
    23:00 +12°C° 0 mm 2 mps 743 mmHg 86%

    25 November, Sunday

    Time Temperature Precipitation Wind Pressure Humidity
    00:00 +12°C° 0 mm 2 mps 743 mmHg 88%
    01:00 +10°C° 0 mm 2 mps 742 mmHg 90%
    02:00 +10°C° 0 mm 2 mps 742 mmHg 90%
    03:00 +10°C° 0 mm 3 mps 742 mmHg 90%
    04:00 +10°C° 0 mm 3 mps 742 mmHg 90%
    05:00 +11°C° 0 mm 3 mps 742 mmHg 86%
    06:00 +12°C° 0 mm 3 mps 743 mmHg 82%
    07:00 +13°C° 0 mm 3 mps 743 mmHg 78%
    08:00 +16°C° 0 mm 3 mps 743 mmHg 69%
    09:00 +18°C° 0 mm 2 mps 742 mmHg 59%
    10:00 +20°C° 0 mm 2 mps 742 mmHg 50%
    11:00 +23°C° 0 mm 2 mps 742 mmHg 46%
    12:00 +24°C° 0 mm 2 mps 741 mmHg 41%
    13:00 +25°C° 0 mm 2 mps 741 mmHg 37%
    14:00 +26°C° 0 mm 3 mps 741 mmHg 37%
    15:00 +26°C° 0 mm 3 mps 740 mmHg 37%
    16:00 +26°C° 0 mm 4 mps 740 mmHg 38%
    17:00 +25°C° 0 mm 4 mps 741 mmHg 45%
    18:00 +22°C° 0 mm 4 mps 741 mmHg 52%
    19:00 +20°C° 0 mm 3 mps 741 mmHg 59%
    20:00 +19°C° 0 mm 3 mps 742 mmHg 66%
    21:00 +17°C° 0 mm 3 mps 742 mmHg 73%
    22:00 +16°C° 0 mm 3 mps 742 mmHg 80%
    23:00 +14°C° 0 mm 3 mps 742 mmHg 84%
    Show more